Blue Canyon, CA

6:03 PM PDT on May 20, 2018 (GMT -0700)
Blue Canyon-Nyack

Weather History for KBLU - February, 2013

Change the Weather History Date:

Saturday, February 16, 2013

  Actual Average Record
Temperature  
Mean Temperature 48 °F -  
Max Temperature 53 °F 42 °F 64 °F (1977)
Min Temperature 43 °F 30 °F 9 °F (1956)
Degree Days  
Heating Degree Days 17    
Moisture  
Dew Point 19 °F    
Average Humidity 34    
Maximum Humidity 60    
Minimum Humidity 15    
Precipitation  
Precipitation 0.00 in - - ()
Sea Level Pressure  
Sea Level Pressure 30.12 in    
Wind  
Wind Speed 2 mph (South)    
Max Wind Speed 7 mph    
Max Gust Speed -    
Visibility 10 miles    
Events      
Averages and records for this station are not official NWS values.
T = Trace of Precipitation, MM = Missing Value Source: NWS Daily Summary

Daily Weather History Graph

Daily Weather History Graph

Search for Another Location

Airport or City:

Astronomy

Feb. 16, 2013 Rise Set
Actual Time 6:52 AM PST 5:41 PM PST
Civil Twilight 6:25 AM PST 6:08 PM PST
Nautical Twilight 5:54 AM PST 6:40 PM PST
Astronomical Twilight 5:23 AM PST 7:11 PM PST
Moon 10:11 AM PST (2/16) No Moon Set
Length of Visible Light 11h 43m
Length of Day
10h 48m
Waxing Crescent, 40% of the Moon is Illuminated
Feb 16
Waxing Crescent
Feb 17
First Quarter
Feb 25
Full
Mar 4
Last Quarter
Mar 11
New

Hourly Weather History & Observations

Time (PST) Temp. Windchill Dew Point Humidity Pressure Visibility Wind Dir Wind Speed Gust Speed Precip Events Conditions
12:52 AM 50.0 °F - 3.0 °F 15% 30.23 in 10.0 mi East 3.5 mph - N/A   Clear
1:52 AM 51.1 °F - 5.0 °F 15% 30.21 in 10.0 mi Calm Calm - N/A   Clear
2:52 AM 50.0 °F - 8.1 °F 18% 30.20 in 10.0 mi Calm Calm - N/A   Clear
3:52 AM 48.9 °F - 9.0 °F 20% 30.19 in 10.0 mi Calm Calm - N/A   Clear
4:52 AM 48.9 °F - 8.1 °F 19% 30.19 in 10.0 mi Calm Calm - N/A   Clear
5:52 AM 48.0 °F - 7.0 °F 19% 30.20 in 10.0 mi Calm Calm - N/A   Clear
6:52 AM 48.9 °F - 7.0 °F 18% 30.18 in 10.0 mi Calm Calm - N/A   Clear
7:52 AM 48.9 °F - 8.1 °F 19% 30.18 in 10.0 mi Calm Calm - N/A   Clear
8:52 AM 53.1 °F - 10.9 °F 19% 30.17 in 10.0 mi Calm Calm - N/A   Clear
9:52 AM 53.1 °F - 10.9 °F 19% 30.16 in 10.0 mi Calm Calm - N/A   Clear
10:52 AM 53.1 °F - 14.0 °F 21% 30.15 in 10.0 mi South 5.8 mph - N/A   Clear
11:52 AM 52.0 °F - 18.0 °F 26% 30.14 in 10.0 mi South 5.8 mph - N/A   Clear
12:52 PM 53.1 °F - 19.9 °F 27% 30.11 in 10.0 mi WSW 6.9 mph - N/A   Clear
1:52 PM 52.0 °F - 23.0 °F 32% 30.09 in 10.0 mi West 6.9 mph - N/A   Clear
2:52 PM 51.1 °F - 28.0 °F 41% 30.08 in 10.0 mi West 4.6 mph - N/A   Clear
3:52 PM 51.1 °F - 28.9 °F 43% 30.07 in 10.0 mi Calm Calm - N/A   Clear
4:52 PM 48.9 °F - 28.9 °F 46% 30.06 in 10.0 mi Calm Calm - N/A   Clear
5:52 PM 46.0 °F - 30.9 °F 56% 30.07 in 10.0 mi Calm Calm - N/A   Clear
6:52 PM 45.0 °F 43.5 °F 30.9 °F 58% 30.06 in 10.0 mi SE 3.5 mph - N/A   Clear
7:52 PM 45.0 °F - 32.0 °F 60% 30.05 in 10.0 mi Calm Calm - N/A   Clear
8:52 PM 45.0 °F 43.5 °F 30.9 °F 58% 30.03 in 10.0 mi South 3.5 mph - N/A   Clear
9:52 PM 44.1 °F 42.5 °F 30.9 °F 60% 30.02 in 10.0 mi SE 3.5 mph - N/A   Clear
10:52 PM 43.0 °F - 28.0 °F 56% 30.02 in 10.0 mi Calm Calm - N/A   Clear
11:52 PM 43.0 °F 41.3 °F 28.0 °F 56% 30.01 in 10.0 mi SE 3.5 mph - N/A   Clear